Location: Newark
(42.0700°N, 88.0492°W)
Time: 09:19:30
(UTC+00:00)

ISS - Pass Details

Date: 24 September 2019
Orbit: 411 x 421 km, 51.6° (Epoch: 16 October)

Event Time Altitude Azimuth Distance (km) Brightness Sun altitude
Rises 02:22:01 0° 288° (WNW) 2,342 1.2 -28.3°
Reaches altitude 10° 02:24:39 10° 310° (NW) 1,481 -0.1 -28.8°
Enters shadow 02:25:43 14° 327° (NNW) 1,242 -0.7 -28.9°
